Location: Cantaing
(50.1487°N, 3.1675°E)
Time: 09:52:26
(UTC+00:00)

RUBIN 8/PSLV - Pass Details

Date: 14 January 2026
Orbit: 593 x 628 km, 98.1° (Epoch: 17 February)

Event Time Altitude Azimuth Distance (km) Brightness Sun altitude
Rises 05:51:51 0° 11° (N) 2,847 7.9 -16.9°
Reaches altitude 10° 05:54:02 10° 8° (N) 1,939 7.0 -16.5°
Maximum altitude 05:58:10 61° 289° (WNW) 677 4.4 -15.9°
Drops below altitude 10° 06:02:18 10° 209° (SSW) 1,927 7.0 -15.3°
Sets 06:04:28 0° 206° (SSW) 2,828 7.8 -14.9°
